Location: Oberwangen
(47.4286°N, 8.9679°E)
Time: 12:35:10
(UTC+00:00)

Cosmos 1953 Rocket - Pass Details

Date: 28 October 2021
Orbit: 604 x 635 km, 82.5° (Epoch: 26 November)

Event Time Altitude Azimuth Distance (km) Brightness Sun altitude
Rises 17:52:09 0° 355° (N) 2,942 7.1 -17.3°
Reaches altitude 10° 17:54:29 10° 1° (N) 2,026 6.2 -17.6°
Maximum altitude 17:58:51 49° 76° (ENE) 821 3.7 -18.4°
Enters shadow 18:00:34 31° 132° (SE) 1,099 4.4 -18.7°
